Weather History for Brisbane, QU

Change the Weather History Date:

Thursday, June 5, 2014

  Actual Average Record
Temperature  
Mean Temperature 66 °F -  
Max Temperature 77 °F 70 °F 78 °F (2003)
Min Temperature 55 °F 52 °F 44 °F (2006)
Cooling Degree Days 1    
Growing Degree Days 16 (Base 50)    
Moisture  
Dew Point 55 °F    
Average Humidity 69    
Maximum Humidity 94    
Minimum Humidity 35    
Precipitation  
Precipitation 0.00 in 0.10 in - ()
Sea Level Pressure  
Sea Level Pressure 30.16 in    
Wind  
Wind Speed 8 mph ()    
Max Wind Speed 13 mph    
Max Gust Speed -    
Visibility 7.6 miles    
Events      
Averages and records for this station are not official NWS values.
T = Trace of Precipitation, MM = Missing Value Source: Averaged Metar Reports

Daily Weather History Graph

Daily Weather History Graph

Search for Another Location

Airport:

Trip Planner

Search our weather history database for the weather conditions in past years. The results will help you decide how hot, cold, wet, or windy it might be!

Date:

Astronomy

Jun. 05, 2014 Rise Set
Actual Time 6:31 AM AEST 5:00 PM AEST
Civil Twilight 6:05 AM AEST 5:25 PM AEST
Nautical Twilight 5:36 AM AEST 5:54 PM AEST
Astronomical Twilight 5:08 AM AEST 6:23 PM AEST
Moon 11:29 AM AEST (6/5) 11:29 PM AEST (6/5)
Length of Visible Light 11h 19m
Length of Day
10h 29m
Waxing Crescent, 43% of the Moon is Illuminated
Jun 5
Waxing Crescent
Jun 6
First Quarter
Jun 13
Full
Jun 20
Last Quarter
Jun 27
New

Hourly Weather History & Observations

Time (AEST) Temp. Dew Point Humidity Pressure Visibility Wind Dir Wind Speed Gust Speed Precip Events Conditions
12:00 AM 60 °F 55 °F 77% 30.19 in 25 mi SSW 5.8 mph - -   Partly Cloudy
12:00 AM 59.0 °F 55.4 °F 88% 30.18 in 6.2 mi SSW 5.8 mph - N/A   Partly Cloudy
12:30 AM 59.0 °F 53.6 °F 82% 30.18 in 6.2 mi SSW 5.8 mph - N/A   Scattered Clouds
1:00 AM 61 °F 55 °F 73% 30.19 in - SSW 8.1 mph - -  
1:00 AM 60.8 °F 55.4 °F 82% 30.18 in 6.2 mi SSW 8.1 mph - N/A   Partly Cloudy
1:30 AM 60.8 °F 55.4 °F 82% 30.15 in 6.2 mi South 8.1 mph - N/A   Partly Cloudy
2:00 AM 57.2 °F 53.6 °F 88% 30.15 in 6.2 mi SSW 6.9 mph - N/A   Partly Cloudy
2:30 AM 57.2 °F 51.8 °F 82% 30.15 in 6.2 mi SSW 8.1 mph - N/A   Partly Cloudy
3:00 AM 58 °F 53 °F 77% 30.18 in 25 mi SSW 8.1 mph - -   Partly Cloudy
3:00 AM 57.2 °F 53.6 °F 88% 30.15 in 6.2 mi SSW 8.1 mph - N/A   Partly Cloudy
3:30 AM 59.0 °F 51.8 °F 77% 30.15 in 6.2 mi SSW 8.1 mph - N/A   Partly Cloudy
4:00 AM 56 °F 52 °F 83% 30.17 in - SSW 8.1 mph - -  
4:00 AM 57.2 °F 51.8 °F 82% 30.15 in 6.2 mi SSW 8.1 mph - N/A   Partly Cloudy
4:30 AM 59.0 °F 53.6 °F 82% 30.15 in 6.2 mi SSW 10.4 mph - N/A   Partly Cloudy
5:00 AM 57.2 °F 51.8 °F 82% 30.15 in 6.2 mi SSW 9.2 mph - N/A   Partly Cloudy
5:30 AM 57.2 °F 53.6 °F 88% 30.18 in 6.2 mi SSW 9.2 mph - N/A   Partly Cloudy
6:00 AM 58 °F 54 °F 80% 30.19 in 19 mi SSW 8.1 mph - -   Partly Cloudy
6:00 AM 59.0 °F 53.6 °F 82% 30.18 in 6.2 mi SSW 8.1 mph - N/A   Partly Cloudy
6:30 AM 55.4 °F 53.6 °F 94% 30.18 in 6.2 mi SSW 9.2 mph - N/A   Unknown
7:00 AM 58 °F 53 °F 76% 30.20 in - SSW 9.2 mph - -  
7:00 AM 57.2 °F 51.8 °F 82% 30.18 in 6.2 mi SSW 9.2 mph - N/A   Partly Cloudy
7:30 AM 60.8 °F 51.8 °F 72% 30.18 in 6.2 mi SSW 10.4 mph - N/A   Partly Cloudy
8:00 AM 60.8 °F 53.6 °F 77% 30.21 in 6.2 mi SSW 10.4 mph - N/A   Partly Cloudy
8:30 AM 64.4 °F 53.6 °F 68% 30.21 in 6.2 mi SSW 11.5 mph - N/A   Partly Cloudy
9:00 AM 65 °F 53 °F 56% 30.22 in 19 mi SSW 10.4 mph - -   Partly Cloudy
9:00 AM 66.2 °F 53.6 °F 64% 30.21 in 6.2 mi SSW 10.4 mph - N/A   Partly Cloudy
9:30 AM 68.0 °F 53.6 °F 60% 30.21 in 6.2 mi SSW 12.7 mph - N/A   Partly Cloudy
10:00 AM 69 °F 54 °F 48% 30.22 in - SSW 12.7 mph - -  
10:00 AM 69.8 °F 53.6 °F 56% 30.21 in 6.2 mi SSW 12.7 mph - N/A   Partly Cloudy
10:30 AM 69.8 °F 53.6 °F 56% 30.18 in 6.2 mi SSW 12.7 mph - N/A   Partly Cloudy
11:00 AM 71.6 °F 53.6 °F 53% 30.18 in 6.2 mi SSW 10.4 mph - N/A   Partly Cloudy
11:30 AM 71.6 °F 55.4 °F 57% 30.15 in 6.2 mi SSW 9.2 mph - N/A   Scattered Clouds
12:00 PM 73 °F 54 °F 41% 30.17 in 19 mi SSW 9.2 mph - -   Partly Cloudy
12:00 PM 73.4 °F 53.6 °F 50% 30.15 in 6.2 mi SSW 9.2 mph - N/A   Scattered Clouds
12:30 PM 75.2 °F 53.6 °F 47% 30.15 in 6.2 mi SW 8.1 mph - N/A   Mostly Cloudy
1:00 PM 75 °F 53 °F 35% 30.14 in - SSW 11.5 mph - -  
1:00 PM 75.2 °F 53.6 °F 47% 30.12 in 6.2 mi SSW 11.5 mph - N/A   Mostly Cloudy
1:30 PM 75.2 °F 51.8 °F 44% 30.12 in 6.2 mi SW 9.2 mph - N/A   Mostly Cloudy
2:00 PM 77.0 °F 53.6 °F 44% 30.09 in 6.2 mi South 10.4 mph - N/A   Mostly Cloudy
2:30 PM 77.0 °F 53.6 °F 44% 30.09 in 6.2 mi SSW 10.4 mph - N/A   Mostly Cloudy
3:00 PM 73 °F 58 °F 49% 30.12 in 19 mi ESE 12.7 mph - -   Partly Cloudy
3:00 PM 73.4 °F 57.2 °F 57% 30.09 in 6.2 mi ESE 12.7 mph - N/A   Mostly Cloudy
3:30 PM 71.6 °F 59.0 °F 64% 30.09 in 6.2 mi ESE 9.2 mph - N/A   Mostly Cloudy
4:00 PM 72 °F 58 °F 52% 30.12 in - ESE 9.2 mph - -  
4:00 PM 71.6 °F 57.2 °F 60% 30.09 in - ESE 9.2 mph - N/A   Unknown
4:30 PM 69.8 °F 59.0 °F 68% 30.12 in 6.2 mi ESE 8.1 mph - N/A   Scattered Clouds
5:00 PM 69.8 °F 59.0 °F 68% 30.12 in 6.2 mi SE 8.1 mph - N/A   Scattered Clouds
5:30 PM 69.8 °F 57.2 °F 64% 30.12 in 6.2 mi SE 8.1 mph - N/A   Partly Cloudy
6:00 PM 69 °F 58 °F 59% 30.15 in 19 mi SE 5.8 mph - -   Partly Cloudy
6:00 PM 69.8 °F 57.2 °F 64% 30.12 in 6.2 mi SE 5.8 mph - N/A   Partly Cloudy
6:30 PM 68.0 °F 59.0 °F 73% 30.15 in - SE 6.9 mph - N/A   Clear
7:00 PM 69 °F 59 °F 62% 30.17 in - SE 6.9 mph - -  
7:00 PM 68.0 °F 59.0 °F 73% 30.15 in 6.2 mi SE 6.9 mph - N/A   Scattered Clouds
7:30 PM 68.0 °F 59.0 °F 73% 30.15 in 6.2 mi SE 6.9 mph - N/A   Scattered Clouds
8:00 PM 68.0 °F 59.0 °F 73% 30.18 in 6.2 mi SE 8.1 mph - N/A   Scattered Clouds
8:30 PM 68.0 °F 59.0 °F 73% 30.18 in 6.2 mi SE 10.4 mph - N/A   Scattered Clouds
9:00 PM 67 °F 58 °F 67% 30.18 in 16 mi SSE 11.5 mph - -   Partly Cloudy
9:00 PM 66.2 °F 59.0 °F 78% 30.18 in 6.2 mi SSE 11.5 mph - N/A   Scattered Clouds
9:30 PM 66.2 °F 57.2 °F 73% 30.18 in 6.2 mi SE 8.1 mph - N/A   Partly Cloudy
10:00 PM 65 °F 58 °F 73% 30.19 in - SSE 8.1 mph - -  
10:00 PM 64.4 °F 59.0 °F 83% 30.18 in 6.2 mi SSE 8.1 mph - N/A   Partly Cloudy
10:30 PM 64.4 °F 59.0 °F 83% 30.18 in 6.2 mi South 6.9 mph - N/A   Partly Cloudy
11:00 PM 60.8 °F 57.2 °F 88% 30.18 in 6.2 mi SSW 6.9 mph - N/A   Partly Cloudy
11:30 PM 60.8 °F 57.2 °F 88% 30.18 in 6.2 mi SSW 8.1 mph - N/A   Partly Cloudy